Location: St. Louis
(38.6270°N, 90.1994°W)
Time: 20:37:16
(UTC-05:00)

ISS - Pass Details

Date: 30 May 2018
Orbit: 411 x 421 km, 51.6° (Epoch: 21 October)

Event Time Altitude Azimuth Distance (km) Brightness Sun altitude
Rises 23:53:15 0° 307° (NW) 2,344 0.8 -27.7°
Reaches altitude 10° 23:55:20 10° 305° (NW) 1,481 -0.4 -27.8°
Enters shadow 23:55:54 14° 304° (WNW) 1,256 -0.8 -27.9°
